FW8007 Weather Reports


time (UTC)temp
F
wind
direction
speed
knots
gust
knots
rain 1hr
in
rain 24hr
in
rain mn
in
humidity
%
barometer
mb
20260506111544 55 271 0.9 7.8 0.00 0.57 0.08 90 1004.5
20260506111018 55 271 0.9 5.2 0.00 0.57 0.08 90 1004.6
20260506110523 54 247 0.9 5.2 0.00 0.57 0.08 91 1004.5
20260506110038 54 280 0.9 5.2 0.00 0.57 0.08 91 1004.5
20260506105521 54 290 0.9 3.5 0.00 0.57 0.08 91 1004.6
20260506105022 54 0 0.0 3.5 0.00 0.57 0.08 91 1004.6
20260506104538 54 203 0.9 3.5 0.00 0.57 0.08 91 1004.6
20260506104018 54 252 0.9 2.6 0.00 0.57 0.08 91 1004.7
20260506103519 54 0 0.9 2.6 0.00 0.57 0.08 91 1004.7
20260506103037 54 261 0.9 2.6 0.00 0.57 0.08 90 1004.7
20260506102520 54 271 0.9 2.6 0.00 0.57 0.08 91 1004.6
20260506102110 54 0 0.0 4.3 0.00 0.57 0.08 90 1004.6
20260506101537 54 271 0.0 4.3 0.00 0.57 0.08 91 1004.6
20260506101019 54 271 0.0 3.5 0.00 0.57 0.08 92 1004.5
20260506100518 53 0 0.0 4.3 0.00 0.57 0.08 93 1004.6
20260506100036 53 271 0.0 4.3 0.00 0.57 0.08 93 1004.5
20260506095518 53 271 0.9 4.3 0.00 0.57 0.08 93 1004.6
20260506095022 53 271 0.9 3.5 0.00 0.57 0.08 93 1004.5
20260506094548 53 271 0.0 4.3 0.00 0.57 0.08 95 1004.5
20260506094019 53 0 0.0 4.3 0.00 0.57 0.08 94 1004.5
20260506093518 53 0 0.9 4.3 0.00 0.57 0.08 94 1004.6
20260506093038 53 0 0.9 5.2 0.00 0.57 0.08 94 1004.6
20260506092518 53 271 1.7 5.2 0.00 0.57 0.08 95 1004.6
20260506092019 52 0 0.9 3.5 0.00 0.57 0.08 95 1004.5
20260506091538 52 0 0.9 3.5 0.00 0.57 0.08 95 1004.5
20260506091018 52 0 0.9 3.5 0.00 0.57 0.08 95 1004.4
20260506090517 51 320 0.9 3.5 0.00 0.57 0.08 95 1004.5
20260506090037 51 357 0.9 2.6 0.00 0.57 0.08 96 1004.5
20260506085519 51 299 0.9 3.5 0.01 0.57 0.08 95 1004.3
20260506085020 51 271 0.0 3.5 0.01 0.57 0.08 96 1004.3
20260506084538 51 0 0.9 3.5 0.01 0.57 0.08 96 1004.3
20260506084021 51 289 0.9 3.5 0.01 0.57 0.08 96 1004.3
20260506083521 51 240 0.0 2.6 0.01 0.57 0.08 96 1004.3
20260506083037 51 324 0.0 2.6 0.01 0.57 0.08 96 1004.3
20260506082518 51 255 0.9 2.6 0.01 0.57 0.08 95 1004.3
20260506082019 51 359 0.0 3.5 0.01 0.57 0.08 96 1004.1
20260506081543 50 249 0.9 3.5 0.00 0.56 0.07 96 1004.2
20260506081020 50 0 0.9 3.5 0.00 0.56 0.07 96 1004.1
20260506080519 50 261 0.9 2.6 0.00 0.56 0.07 96 1004.2
20260506073519 50 258 0.0 3.5 0.00 0.55 0.07 96 1004.0
20260506073042 50 0 0.0 3.5 0.00 0.55 0.07 96 1003.9
20260506072518 50 261 0.0 2.6 0.00 0.55 0.07 96 1004.0
20260506072021 50 271 0.9 2.6 0.01 0.55 0.07 96 1003.9
20260506071537 50 236 0.0 2.6 0.01 0.55 0.07 96 1003.9
20260506071018 50 253 0.0 3.5 0.02 0.55 0.07 96 1003.9
20260506070517 50 281 0.9 3.5 0.02 0.55 0.07 96 1003.9
20260506062018 50 263 0.0 2.6 0.00 0.54 0.05 96 1003.8
20260506061538 49 0 0.0 2.6 0.00 0.54 0.05 96 1003.7
20260506061018 50 263 0.9 2.6 0.00 0.53 0.04 96 1003.8
20260506060520 50 280 0.0 3.5 0.00 0.53 0.04 96 1003.7
20260506051021 49 283 0.0 2.6 0.00 0.52 0.03 96 1003.6
20260506050521 49 0 0.0 2.6 0.00 0.52 0.03 96 1003.7
20260506045017 49 258 0.0 2.6 0.00 0.52 0.03 96 1003.7
20260506044545 49 261 0.0 2.6 0.00 0.52 0.03 96 1003.8
20260506044018 49 0 0.0 1.7 0.00 0.52 0.03 96 1003.9
20260506043520 49 0 0.0 1.7 0.00 0.52 0.03 96 1003.9
20260506043037 49 294 0.0 2.6 0.00 0.52 0.03 96 1003.8
20260506042521 49 0 0.9 2.6 0.00 0.52 0.03 95 1003.8
20260506042023 49 324 0.0 2.6 0.00 0.52 0.03 95 1003.8
20260506041536 49 303 0.0 4.3 0.00 0.52 0.03 95 1003.9
20260506041018 49 0 0.0 4.3 0.00 0.52 0.03 95 1003.8
20260506040517 50 194 0.9 2.6 0.00 0.52 0.03 95 1003.9
20260506040057 50 0 0.0 4.3 0.00 0.52 0.03 95 1003.9
20260506035517 50 253 0.9 4.3 0.00 0.52 0.03 95 1003.9
20260506035017 50 303 0.0 3.5 0.00 0.52 0.03 95 1003.9
20260506034543 50 0 0.9 3.5 0.00 0.52 0.03 95 1004.0
20260506034017 50 242 0.9 5.2 0.00 0.52 0.03 95 1004.0
20260506033517 50 0 0.9 5.2 0.00 0.52 0.03 95 1004.0
20260506033039 50 262 0.9 4.3 0.00 0.52 0.03 95 1003.9
20260506032517 50 305 0.0 4.3 0.00 0.52 0.03 95 1004.0
20260506032019 50 280 0.9 4.3 0.00 0.52 0.03 95 1004.0
20260506031553 50 263 0.9 4.3 0.00 0.52 0.03 95 1003.9
20260506031020 50 280 0.0 3.5 0.00 0.52 0.03 95 1003.9
20260506030518 50 236 0.0 3.5 0.00 0.52 0.03 95 1003.9
20260506030038 50 297 0.9 3.5 0.00 0.52 0.03 95 1003.9
20260506025520 50 307 0.0 3.5 0.00 0.52 0.03 95 1003.9
20260506025021 50 261 0.0 3.5 0.00 0.52 0.03 95 1004.0
20260506024537 50 280 0.9 3.5 0.00 0.52 0.03 95 1004.0
20260506024020 50 0 0.9 3.5 0.00 0.52 0.03 95 1004.1
20260506023523 50 261 0.0 3.5 0.00 0.52 0.03 95 1004.1
20260506023037 50 0 0.0 4.3 0.00 0.52 0.03 95 1004.1
20260506022521 50 0 0.9 4.3 0.00 0.52 0.03 95 1004.2
20260506022020 50 256 0.9 3.5 0.00 0.52 0.03 95 1004.2
20260506021538 50 240 0.0 3.5 0.00 0.52 0.03 95 1004.3
20260506021018 50 288 0.0 3.5 0.00 0.52 0.03 95 1004.3
20260506020516 51 0 0.9 3.5 0.00 0.52 0.03 95 1004.3
20260506020039 51 357 0.9 3.5 0.00 0.52 0.03 95 1004.4
20260506015517 51 0 0.0 2.6 0.00 0.52 0.03 95 1004.3
20260506015019 51 0 0.0 3.5 0.00 0.52 0.03 95 1004.3
20260506014539 51 0 0.0 3.5 0.00 0.52 0.03 95 1004.3
20260506014017 51 0 0.0 3.5 0.00 0.52 0.03 95 1004.5
20260506013517 51 271 0.9 3.5 0.00 0.52 0.03 95 1004.4
20260506013037 51 271 0.0 3.5 0.00 0.52 0.03 95 1004.4
20260506012518 51 271 0.0 5.2 0.00 0.52 0.03 95 1004.5
20260506012017 51 288 1.7 6.1 0.00 0.52 0.03 94 1004.4
20260506011538 51 216 1.7 6.1 0.00 0.52 0.03 94 1004.3
20260506011020 51 263 0.9 4.3 0.00 0.52 0.03 94 1004.4
20260506010518 51 271 0.9 7.8 0.00 0.52 0.03 94 1004.5
20260506010045 51 308 2.6 7.8 0.00 0.52 0.03 94 1004.4
20260506005517 51 243 0.9 7.0 0.00 0.52 0.03 94 1004.5
20260506005017 51 263 1.7 7.0 0.00 0.52 0.03 94 1004.5
20260506004538 51 280 0.9 4.3 0.00 0.52 0.03 94 1004.5
20260506004020 51 218 0.9 7.0 0.00 0.52 0.03 94 1004.3
20260506003519 52 313 0.9 7.8 0.00 0.52 0.03 94 1004.5
20260506003038 52 263 2.6 7.8 0.00 0.52 0.03 94 1004.6
20260506002517 52 228 2.6 7.8 0.00 0.52 0.03 94 1004.6
20260506002020 52 271 0.9 4.3 0.00 0.52 0.03 94 1004.6
20260506001537 52 224 1.7 4.3 0.01 0.52 0.03 94 1004.5
20260506001017 52 0 0.9 6.1 0.01 0.52 0.03 94 1004.7
20260506000519 52 260 1.7 6.1 0.01 0.52 0.03 94 1004.6
20260506000037 52 0 0.9 4.3 0.01 0.52 0.03 94 1004.6
20260505235517 52 263 0.9 5.2 0.01 0.53 0.03 94 1004.7
20260505235020 52 259 1.7 6.1 0.02 0.53 0.03 94 1004.9
20260505234542 52 234 0.9 6.1 0.01 0.52 0.03 94 1004.8
20260505234019 52 185 0.9 3.5 0.01 0.52 0.03 94 1005.0
20260505233519 52 228 0.0 2.6 0.02 0.52 0.03 94 1004.9
20260505233041 52 0 0.9 2.6 0.03 0.52 0.03 94 1004.9
20260505232518 53 250 0.0 2.6 0.03 0.52 0.03 94 1004.9
20260505232018 53 194 0.0 2.6 0.03 0.52 0.03 94 1005.0
20260505231546 53 0 0.0 2.6 0.02 0.51 0.02 94 1005.0
20260505231020 53 299 0.0 2.6 0.02 0.51 0.02 94 1004.8
20260505230518 53 212 0.0 2.6 0.02 0.51 0.02 94 1004.9
20260505230037 53 51 0.0 2.6 0.02 0.51 0.02 94 1005.0
20260505225522 53 203 0.9 4.3 0.02 0.51 0.02 94 1005.0
20260505225018 53 127 0.0 4.3 0.01 0.51 0.01 94 1005.0
20260505224537 53 172 0.0 3.5 0.01 0.51 0.01 94 1005.0
20260505224018 53 113 0.9 3.5 0.02 0.51 0.01 94 1005.0
20260505223525 53 0 0.0 3.5 0.01 0.50 0.00 94 1005.1
20260505223044 53 122 0.0 3.5 0.00 0.49 0.00 94 1005.1
20260505222517 53 129 0.9 3.5 0.00 0.49 0.00 94 1005.1
20260505222019 53 68 0.9 2.6 0.00 0.49 0.00 94 1005.0
20260505221537 53 0 0.0 2.6 0.00 0.49 0.00 94 1005.1
20260505221017 53 0 0.0 2.6 0.01 0.49 0.00 94 1005.1
20260505220517 53 0 0.9 2.6 0.01 0.49 0.00 94 1005.1
20260505220041 53 113 0.0 3.5 0.01 0.49 0.00 94 1005.3
20260505215518 53 74 0.0 3.5 0.01 0.49 0.49 94 1005.2
20260505215018 53 126 0.0 1.7 0.01 0.49 0.49 94 1005.4
20260505214548 53 0 0.0 3.5 0.01 0.49 0.49 94 1005.4
20260505214020 53 128 0.9 3.5 0.00 0.48 0.48 94 1005.5
20260505213517 53 113 0.0 1.7 0.01 0.48 0.48 94 1005.4
20260505213038 53 0 0.0 1.7 0.01 0.48 0.48 94 1005.5
20260505212517 53 0 0.0 2.6 0.01 0.48 0.48 94 1005.5
20260505212019 53 0 0.0 2.6 0.01 0.48 0.48 94 1005.5
20260505211538 53 0 0.0 2.6 0.02 0.48 0.48 94 1005.6
20260505211020 53 0 0.0 1.7 0.01 0.48 0.48 94 1005.7
20260505210516 53 0 0.0 1.7 0.01 0.48 0.48 94 1005.7
20260505210037 53 122 0.9 1.7 0.01 0.48 0.48 94 1005.7
20260505205519 53 0 0.0 1.7 0.02 0.48 0.48 94 1005.7
20260505205017 53 0 0.0 0.0 0.02 0.48 0.48 94 1005.8
20260505204537 53 0 0.0 0.0 0.03 0.48 0.48 94 1005.9
20260505204016 53 0 0.0 0.0 0.03 0.48 0.48 94 1005.9
20260505203517 53 0 0.0 0.0 0.03 0.47 0.47 94 1006.0
20260505203036 53 0 0.0 0.0 0.03 0.47 0.47 94 1006.0
20260505202519 53 0 0.0 0.0 0.03 0.47 0.47 94 1006.0
20260505202018 53 0 0.0 0.0 0.03 0.47 0.47 94 1005.9
20260505201539 53 0 0.0 0.0 0.03 0.46 0.46 94 1006.0
20260505201017 54 0 0.0 0.0 0.03 0.46 0.46 94 1006.0
20260505200519 54 0 0.0 0.0 0.03 0.46 0.46 94 1005.9
20260505200043 54 0 0.0 0.0 0.03 0.46 0.46 94 1005.9
20260505195520 54 0 0.0 0.0 0.03 0.45 0.45 94 1005.7
20260505195017 54 0 0.0 0.0 0.03 0.45 0.45 94 1005.8
20260505194538 54 0 0.0 0.0 0.03 0.44 0.44 94 1005.9
20260505194018 54 0 0.0 0.0 0.02 0.44 0.44 94 1005.9
20260505193516 54 0 0.0 0.0 0.02 0.44 0.44 94 1005.9
20260505193037 54 0 0.0 0.0 0.03 0.44 0.44 94 1005.8
20260505192521 54 0 0.0 0.0 0.02 0.43 0.43 94 1005.8
20260505192020 54 0 0.0 0.0 0.02 0.43 0.43 94 1005.8
20260505191540 54 0 0.0 0.0 0.01 0.42 0.42 94 1005.8
20260505191019 54 0 0.0 0.0 0.02 0.42 0.42 94 1005.8
20260505190518 54 0 0.0 0.0 0.02 0.42 0.42 93 1005.9
20260505190045 54 0 0.0 0.0 0.01 0.41 0.41 93 1005.8
20260505185518 54 0 0.0 0.0 0.02 0.41 0.41 94 1005.9
20260505185017 55 0 0.0 0.0 0.02 0.41 0.41 93 1005.9
20260505184538 55 0 0.0 0.0 0.02 0.41 0.41 93 1005.9
20260505184017 55 0 0.0 0.0 0.03 0.41 0.41 93 1006.0
20260505183516 55 0 0.0 0.0 0.03 0.41 0.41 93 1006.0
20260505183040 55 0 0.0 0.0 0.02 0.40 0.40 93 1006.0
20260505182517 55 0 0.0 0.0 0.03 0.40 0.40 93 1006.1
20260505182017 55 0 0.0 0.0 0.03 0.40 0.40 93 1006.1
20260505181540 55 0 0.0 0.0 0.03 0.40 0.40 93 1006.1
20260505181019 55 0 0.0 0.0 0.03 0.40 0.40 93 1006.1
20260505180518 55 0 0.0 0.0 0.03 0.40 0.40 93 1006.1
20260505180040 55 0 0.0 0.0 0.03 0.40 0.40 93 1006.1
20260505175517 55 0 0.0 0.0 0.03 0.39 0.39 93 1006.1
20260505175020 55 0 0.0 0.0 0.03 0.39 0.39 93 1006.2
20260505174543 55 0 0.0 0.9 0.03 0.39 0.39 93 1006.2
20260505174021 55 0 0.0 1.7 0.03 0.38 0.38 93 1006.2
20260505173517 55 0 0.0 1.7 0.06 0.38 0.38 93 1006.2
20260505173038 55 0 0.0 0.9 0.06 0.37 0.37 93 1006.2
20260505172516 55 0 0.0 0.9 0.07 0.37 0.37 93 1006.4
20260505172021 55 0 0.0 0.9 0.07 0.37 0.37 93 1006.5
20260505171539 55 0 0.0 0.9 0.10 0.37 0.37 92 1006.3
20260505171020 55 0 0.0 0.9 0.14 0.37 0.37 92 1006.4
20260505170516 55 0 0.0 1.7 0.18 0.37 0.37 92 1006.2
20260505170037 55 0 0.0 1.7 0.22 0.37 0.37 92 1006.4
20260505165516 55 0 0.0 1.7 0.22 0.37 0.36 92 1006.5
20260505165018 55 0 0.0 3.5 0.22 0.37 0.35 92 1006.5
20260505164537 55 0 0.0 3.5 0.23 0.37 0.35 92 1006.4
20260505164018 55 0 0.9 3.5 0.24 0.36 0.34 92 1006.4
20260505163518 55 0 0.0 1.7 0.26 0.33 0.32 92 1006.4
20260505163046 55 235 0.0 1.7 0.27 0.33 0.31 91 1006.6
20260505162517 55 0 0.0 1.7 0.26 0.32 0.30 91 1006.7
20260505162016 55 0 0.0 1.7 0.25 0.31 0.29 91 1006.6
20260505161538 55 0 0.0 2.6 0.22 0.28 0.26 90 1006.5
20260505161019 56 192 0.0 3.5 0.18 0.23 0.22 90 1006.5
20260505160518 56 0 0.9 3.5 0.14 0.19 0.18 90 1006.5
20260505153047 59 0 0.0 1.7 0.00 0.09 0.03 85 1006.3
20260505152519 59 59 0.0 1.7 0.00 0.09 0.03 85 1006.3
20260505152022 59 73 0.0 2.6 0.00 0.09 0.03 84 1006.4
20260505151537 60 76 0.0 2.6 0.00 0.09 0.03 84 1006.5
20260505151016 60 52 0.0 2.6 0.00 0.09 0.03 84 1006.4
20260505150516 60 72 0.0 1.7 0.00 0.09 0.03 84 1006.4
20260505140516 61 66 0.0 2.6 0.03 0.39 0.03 85 1006.8
20260505125017 58 0 0.0 2.6 0.00 0.36 0.00 84 1007.4
20260505124540 58 244 0.9 3.5 0.00 0.36 0.00 82 1007.5
20260505124017 59 247 0.9 3.5 0.00 0.36 0.00 80 1007.6
20260505123516 60 0 0.9 5.2 0.00 0.36 0.00 79 1007.6
20260505123149 60 355 1.7 5.2 0.00 0.36 0.00 77 1007.5
20260505122520 60 357 0.9 4.3 0.00 0.36 0.00 77 1007.6
20260505122019 61 338 0.9 2.6 0.00 0.36 0.00 76 1007.5
20260505121614 60 0 0.0 1.7 0.00 0.36 0.00 76 1007.6
20260505121016 61 0 0.0 2.6 0.00 0.36 0.00 76 1007.5
20260505120517 61 0 0.0 2.6 0.00 0.36 0.00 75 1007.5
20260505120037 61 0 0.9 2.6 0.00 0.36 0.00 74 1007.6
20260505115518 61 334 0.9 2.6 0.00 0.36 0.00 76 1007.6
20260505115018 61 0 0.0 3.5 0.00 0.36 0.00 76 1007.7
20260505114537 61 26 0.9 3.5 0.00 0.36 0.00 76 1007.8
20260505114017 61 0 0.0 2.6 0.00 0.36 0.00 75 1007.9
20260505113518 61 76 0.0 2.6 0.00 0.36 0.00 76 1007.9
20260505113041 61 132 0.9 2.6 0.00 0.36 0.00 77 1008.0
20260505112519 61 351 0.0 2.6 0.00 0.36 0.00 75 1008.0
20260505112016 61 341 0.0 2.6 0.00 0.36 0.00 75 1008.2